Location: Bailey Volunteer Fire Department
(33.4359°N, 96.1680°W)
Time: 17:10:54
(UTC+00:00)

Cosmos 2266 Rocket - Pass Details

Date: 13 December 2025
Orbit: 933 x 1007 km, 82.9° (Epoch: 13 January)

Event Time Altitude Azimuth Distance (km) Brightness Sun altitude
Rises 23:43:20 0° 353° (N) 3,626 6.8 -5.6°
Reaches altitude 10° 23:45:51 10° 354° (N) 2,669 6.1 -6.1°
Maximum altitude 23:51:56 90° 281° (WNW) 941 4.0 -7.2°
Drops below altitude 10° 23:57:57 10° 176° (S) 2,630 6.5 -8.4°
Sets 00:00:24 0° 176° (S) 3,570 7.2 -8.9°
